Theta_e
310 309 310 307 306 308 309 310 310 314 317 316 316 315 312 309 306 304 303 302 301 300
304 305 306 305 304 306 304 304 303 306 310 314 314 313 312 309 306 305 303 303 302 301
300 301 302 302 302 301 301 301 300 300 302 303 305 308 311 310 308 305 304 303 302 301
298 298 299 299 300 300 299 299 299 299 299 300 301 302 304 306 307 305 304 303 302 300
297 297 297 298 298 298 299 297 299 297 298 300 302 303 303 303 304 303 301 300 299 299
296 296 296 296 296 296 296 295 294 294 295 299 300 301 301 302 302 302 302 301 298 298
294 295 295 295 295 294 294 294 292 292 293 294 296 296 297 295 298 299 299 299 298 298
291 291 291 290 289 289 289 290 290 289 289 289 292 293 293 291 294 294 294 294 294 294
286 286 286 286 286 287 287 287 287 287 287 287 289 292 293 293 290 290 290 291 289 288
284 284 285 285 285 286 286 286 285 285 285 285 285 291 292 292 288 287 288 288 287 285
283 283 283 283 283 284 283 283 283 283 283 282 283 289 290 290 286 286 286 287 286 286
282 281 281 282 282 282 279 279 279 280 278 281 285 288 289 288 286 286 285 285 285 285
281 280 280 283 282 283 280 283 282 284 284 284 284 286 287 287 285 284 283 282 283 283
279 278 280 280 282 283 283 283 283 282 282 282 282 283 286 287 284 283 281 281 281 282
Wind_Speed
6 4 5 5 5 6 7 8 8 10 11 10 10 10 10 9 11 13 14 18 16 12
5 6 6 7 6 6 5 5 7 9 11 11 10 9 10 9 11 11 13 15 15 14
6 6 6 5 7 7 5 6 7 8 9 9 11 12 13 11 10 11 11 10 14 14
6 5 5 6 6 7 6 7 8 9 9 11 10 9 10 13 13 13 13 13 14 15
6 6 6 6 6 6 8 6 8 8 9 9 10 10 12 13 12 13 12 12 13 14
8 7 7 7 7 7 7 7 7 7 9 11 11 11 12 14 13 13 14 14 14 15
8 8 8 7 7 7 7 7 7 7 8 9 10 10 11 10 12 12 12 12 12 13
9 8 8 8 7 7 7 7 7 7 8 7 9 8 11 10 12 11 10 9 9 9
8 8 7 7 7 7 8 7 6 7 7 7 7 12 16 12 8 9 10 10 7 6
7 9 9 8 8 8 7 6 7 7 6 7 6 12 13 14 7 7 8 8 6 5
8 8 9 9 7 8 6 6 6 7 6 5 5 10 12 12 7 6 7 7 6 7
9 10 9 8 8 7 4 6 5 4 4 5 6 10 10 9 4 6 6 5 5 6
9 8 8 10 8 3 2 7 6 6 4 5 5 7 8 9 3 4 3 1 3 9
6 8 8 8 5 4 4 4 5 5 4 5 4 5 9 10 3 3 2 2 1 2
Wind_Direction
222 215 216 202 198 213 209 213 206 213 218 217 212 213 207 205 212 212 217 221 216 222
230 223 226 221 217 223 212 204 195 202 216 222 215 207 207 212 215 214 218 222 226 224
248 245 248 241 237 232 232 214 203 207 211 215 222 228 228 231 225 219 222 225 226 227
289 274 261 250 242 231 232 214 216 213 214 217 216 215 225 235 239 233 230 228 229 229
312 300 288 272 263 242 241 224 227 218 223 222 225 224 227 233 230 234 234 235 232 233
317 318 301 292 281 263 255 244 231 221 223 228 227 228 226 230 233 233 239 235 230 234
331 320 309 297 291 285 277 267 254 236 232 227 229 224 228 228 233 235 236 236 234 233
325 319 316 312 301 286 276 271 269 261 242 228 225 224 219 215 228 233 239 238 238 235
328 326 320 312 306 298 289 275 263 260 259 255 244 235 225 224 225 229 234 240 230 227
329 327 324 317 319 315 302 295 282 268 250 249 246 251 247 238 234 233 231 231 219 213
326 325 320 318 317 317 311 304 299 289 275 264 259 260 258 250 241 240 244 231 216 219
325 320 318 318 319 317 309 308 294 271 283 253 261 265 258 252 224 247 246 227 208 214
312 306 308 314 309 272 239 294 295 298 286 285 277 293 283 268 168 239 257 271 202 209
297 303 299 307 288 288 318 305 297 300 306 304 292 296 297 272 178 197 167 191 243 227